TimeEST,TemperatureF,Dew PointF,Humidity,Sea Level PressureIn,VisibilityMPH,Wind Direction,Wind SpeedMPH,Gust SpeedMPH,PrecipitationIn,Events,Conditions,WindDirDegrees,DateUTC
12:15 AM,65.8,57.0,73,29.85,10.0,SW,15.0,24.2,N/A,,Overcast,220,2012-12-04 05:15:00
12:36 AM,66.2,57.0,72,29.86,10.0,SW,16.1,25.3,N/A,,Overcast,230,2012-12-04 05:36:00
12:55 AM,66.2,57.2,73,29.86,10.0,SW,19.6,28.8,N/A,,Overcast,230,2012-12-04 05:55:00
1:15 AM,64.6,56.5,75,29.87,10.0,SW,20.7,31.1,N/A,,Overcast,230,2012-12-04 06:15:00
1:36 AM,63.0,56.3,79,29.88,10.0,SW,17.3,27.6,N/A,,Overcast,230,2012-12-04 06:36:00
1:55 AM,62.8,56.5,80,29.88,10.0,WSW,17.3,25.3,N/A,,Overcast,240,2012-12-04 06:55:00
2:15 AM,62.2,56.5,81,29.89,10.0,WSW,17.3,26.5,N/A,,Overcast,240,2012-12-04 07:15:00
2:35 AM,60.3,57.2,90,29.90,7.0,WSW,17.3,21.9,N/A,Rain,Light Rain,250,2012-12-04 07:35:00
2:55 AM,55.8,53.4,92,29.92,7.0,WNW,10.4,23.0,N/A,,Overcast,290,2012-12-04 07:55:00
3:15 AM,54.3,51.6,91,29.93,7.0,NW,9.2,-,N/A,,Overcast,320,2012-12-04 08:15:00
3:56 AM,52.7,47.5,82,29.94,10.0,NNW,10.4,17.3,N/A,,Overcast,330,2012-12-04 08:56:00
4:15 AM,51.8,46.9,83,29.93,10.0,NNW,9.2,16.1,N/A,Rain,Light Rain,330,2012-12-04 09:15:00
4:35 AM,51.4,46.4,83,29.94,10.0,NW,8.1,17.3,N/A,,Overcast,320,2012-12-04 09:35:00
5:15 AM,50.9,44.6,79,29.96,10.0,North,6.9,-,N/A,,Overcast,350,2012-12-04 10:15:00
5:36 AM,50.4,44.4,80,29.97,10.0,NNW,6.9,-,N/A,,Overcast,340,2012-12-04 10:36:00
5:55 AM,50.2,43.9,79,29.97,10.0,NW,10.4,-,N/A,,Light Drizzle,320,2012-12-04 10:55:00
6:15 AM,50.2,43.3,77,29.99,10.0,NW,4.6,-,N/A,,Overcast,320,2012-12-04 11:15:00
6:36 AM,50.0,43.2,77,30.00,10.0,Calm,Calm,-,N/A,,Overcast,0,2012-12-04 11:36:00
6:55 AM,50.0,43.5,78,30.01,10.0,Calm,Calm,-,N/A,,Overcast,0,2012-12-04 11:55:00
7:15 AM,49.8,44.2,81,30.02,10.0,Calm,Calm,-,N/A,,Overcast,0,2012-12-04 12:15:00
7:35 AM,49.5,45.0,84,30.02,10.0,Calm,Calm,-,N/A,,Overcast,0,2012-12-04 12:35:00
7:55 AM,49.5,44.8,84,30.02,10.0,Calm,Calm,-,N/A,,Overcast,0,2012-12-04 12:55:00
8:15 AM,49.5,44.2,82,30.02,10.0,Calm,Calm,-,N/A,,Overcast,0,2012-12-04 13:15:00
8:35 AM,49.3,44.4,83,30.02,10.0,Calm,Calm,-,N/A,,Overcast,0,2012-12-04 13:35:00
8:55 AM,-9999,-9999,N/A,-9999,-9999.0,North,-9999.0,-,N/A,,Unknown,0,2012-12-04 13:55:00
9:15 AM,-9999,-9999,N/A,-9999,-9999.0,North,-9999.0,-,N/A,,Unknown,0,2012-12-04 14:15:00
9:35 AM,48.0,41.2,77,30.04,10.0,Calm,Calm,-,N/A,,Mostly Cloudy,0,2012-12-04 14:35:00
9:55 AM,48.2,40.8,76,30.05,10.0,WSW,5.8,-,N/A,,Mostly Cloudy,250,2012-12-04 14:55:00
10:15 AM,48.2,41.4,77,30.05,-9999.0,West,4.6,-,N/A,,Scattered Clouds,260,2012-12-04 15:15:00
10:35 AM,49.1,41.0,74,30.05,10.0,West,6.9,-,N/A,,Clear,270,2012-12-04 15:35:00
10:55 AM,49.5,41.0,73,30.05,10.0,West,8.1,-,N/A,,Clear,260,2012-12-04 15:55:00
11:15 AM,49.5,39.9,70,30.05,10.0,West,8.1,-,N/A,,Clear,260,2012-12-04 16:15:00
11:34 AM,49.3,40.1,71,30.06,10.0,West,9.2,-,N/A,,Clear,270,2012-12-04 16:34:00
11:55 AM,50.7,39.6,66,30.06,10.0,WNW,8.1,-,N/A,,Clear,290,2012-12-04 16:55:00
12:15 PM,50.2,39.0,66,30.05,10.0,West,9.2,-,N/A,,Clear,280,2012-12-04 17:15:00
12:34 PM,50.5,38.7,64,30.05,10.0,West,10.4,-,N/A,,Clear,280,2012-12-04 17:34:00
12:55 PM,50.4,37.9,62,30.05,10.0,WNW,9.2,-,N/A,,Clear,290,2012-12-04 17:55:00
1:15 PM,50.0,37.2,62,30.05,10.0,WNW,9.2,16.1,N/A,,Clear,300,2012-12-04 18:15:00
1:35 PM,49.5,37.6,64,30.05,10.0,West,8.1,-,N/A,,Clear,280,2012-12-04 18:35:00
1:55 PM,50.5,36.5,59,30.05,10.0,WNW,9.2,16.1,N/A,,Clear,290,2012-12-04 18:55:00
2:14 PM,49.1,37.4,64,30.05,10.0,West,6.9,-,N/A,,Clear,270,2012-12-04 19:14:00
2:35 PM,49.1,37.9,65,30.05,10.0,West,9.2,-,N/A,,Clear,260,2012-12-04 19:35:00
2:54 PM,49.8,37.4,62,30.05,10.0,WSW,8.1,-,N/A,,Clear,250,2012-12-04 19:54:00
3:15 PM,49.8,36.9,61,30.05,10.0,WSW,9.2,-,N/A,,Clear,250,2012-12-04 20:15:00
3:35 PM,49.1,37.4,64,30.05,10.0,West,8.1,-,N/A,,Clear,260,2012-12-04 20:35:00
3:54 PM,49.1,37.9,65,30.05,10.0,WSW,5.8,-,N/A,,Clear,250,2012-12-04 20:54:00
4:15 PM,49.6,36.3,60,30.06,10.0,WSW,9.2,-,N/A,,Clear,250,2012-12-04 21:15:00
4:34 PM,49.3,36.5,61,30.06,10.0,WSW,9.2,-,N/A,,Clear,250,2012-12-04 21:34:00
4:55 PM,49.1,36.5,62,30.06,10.0,WSW,8.1,-,N/A,,Clear,240,2012-12-04 21:55:00
5:15 PM,48.4,37.6,66,30.07,10.0,WSW,9.2,-,N/A,,Clear,250,2012-12-04 22:15:00
5:35 PM,48.2,39.0,71,30.07,10.0,WSW,9.2,-,N/A,,Clear,250,2012-12-04 22:35:00
5:55 PM,48.4,38.3,68,30.08,10.0,WSW,8.1,-,N/A,,Clear,250,2012-12-04 22:55:00
6:14 PM,48.6,37.8,66,30.09,10.0,WSW,10.4,-,N/A,,Clear,250,2012-12-04 23:14:00
6:35 PM,48.4,39.2,71,30.09,10.0,WSW,9.2,16.1,N/A,,Clear,250,2012-12-04 23:35:00
6:54 PM,48.4,39.0,70,30.09,10.0,WSW,9.2,-,N/A,,Clear,250,2012-12-04 23:54:00
7:15 PM,48.4,39.2,71,30.10,10.0,West,9.2,-,N/A,,Clear,260,2012-12-05 00:15:00
7:35 PM,48.2,39.7,73,30.11,10.0,West,5.8,-,N/A,,Clear,280,2012-12-05 00:35:00
7:55 PM,48.0,39.6,73,30.12,10.0,West,8.1,-,N/A,,Clear,280,2012-12-05 00:55:00
8:15 PM,47.5,40.1,76,30.12,10.0,WNW,5.8,-,N/A,,Clear,300,2012-12-05 01:15:00
8:35 PM,47.5,39.6,74,30.13,10.0,WNW,8.1,-,N/A,,Clear,300,2012-12-05 01:35:00
8:55 PM,47.3,37.2,68,30.14,10.0,NW,13.8,-,N/A,,Clear,320,2012-12-05 01:55:00
9:14 PM,46.2,32.5,59,30.15,10.0,NNW,12.7,25.3,N/A,,Clear,330,2012-12-05 02:14:00
9:35 PM,45.1,34.0,65,30.15,10.0,NNW,11.5,18.4,N/A,,Clear,330,2012-12-05 02:35:00
9:54 PM,43.9,33.1,66,30.16,10.0,NNW,15.0,20.7,N/A,,Clear,330,2012-12-05 02:54:00
10:15 PM,43.2,32.0,65,30.16,10.0,NNW,15.0,23.0,N/A,,Clear,330,2012-12-05 03:15:00
10:35 PM,42.8,31.3,64,30.17,10.0,NNW,15.0,24.2,N/A,,Clear,340,2012-12-05 03:35:00
10:54 PM,41.4,31.6,68,30.18,10.0,NNW,16.1,24.2,N/A,,Clear,330,2012-12-05 03:54:00
11:15 PM,40.3,30.9,69,30.18,10.0,NNW,16.1,23.0,N/A,,Clear,330,2012-12-05 04:15:00
11:35 PM,39.2,30.0,70,30.20,10.0,NNW,11.5,23.0,N/A,,Clear,330,2012-12-05 04:35:00
11:54 PM,38.5,28.0,66,30.21,10.0,NNW,12.7,19.6,N/A,,Clear,340,2012-12-05 04:54:00